EW4496 Weather Reports


Display with metric or nautical units.
time (UTC)temp
F
wind
direction
speed
MPH
gust
MPH
rain 1hr
in
rain 24hr
in
rain mn
in
humidity
%
barometer
mb
20260506134530 56 233 0.0 0.0 0.00 0.00 0.00 86 1019.2
20260506133033 56 233 0.0 0.0 0.00 0.00 0.00 86 1019.2
20260506131536 56 229 0.0 0.0 0.00 0.00 0.00 87 1019.1
20260506130030 56 228 0.0 0.0 0.00 0.00 0.00 87 1019.1
20260506124531 56 233 0.0 0.0 0.00 0.00 0.00 87 1019.0
20260506123050 56 233 0.0 0.0 0.00 0.00 0.00 88 1018.9
20260506121614 56 200 0.0 0.0 0.00 0.00 0.00 87 1018.7
20260506120129 57 233 0.0 0.0 0.00 0.00 0.00 87 1018.7
20260506114614 57 196 0.0 0.0 0.00 0.00 0.00 87 1018.7
20260506113115 56 219 0.0 0.0 0.00 0.00 0.00 86 1018.7
20260506111616 57 207 0.0 0.0 0.00 0.00 0.00 86 1018.5
20260506110016 56 250 0.0 0.0 0.00 0.00 0.00 86 1018.4
20260506104515 57 229 0.0 0.0 0.00 0.00 0.00 86 1018.2
20260506103025 57 232 0.0 0.0 0.00 0.00 0.00 86 1018.1
20260506101514 57 226 0.0 0.0 0.00 0.00 0.00 86 1018.0
20260506100033 57 231 0.0 0.0 0.00 0.01 0.00 85 1018.0
20260506094535 57 290 0.0 0.0 0.00 0.01 0.00 85 1017.9
20260506093042 57 229 0.0 0.0 0.00 0.01 0.00 86 1018.0
20260506091529 57 259 0.0 0.0 0.00 0.01 0.00 85 1017.9
20260506090029 57 236 0.0 0.0 0.00 0.01 0.00 84 1017.9
20260506084544 57 233 0.0 0.0 0.00 0.01 0.00 85 1018.0
20260506083046 58 226 0.0 0.0 0.00 0.01 0.00 85 1018.1
20260506081549 58 226 0.0 0.0 0.00 0.01 0.00 85 1018.0
20260506080117 58 360 0.0 0.0 0.00 0.02 0.00 82 1018.0
20260506073105 58 360 0.0 0.0 0.00 0.02 0.00 82 1017.8
20260506071603 58 360 0.0 0.0 0.00 0.02 0.00 82 1017.6
20260506070118 58 340 0.0 1.0 0.00 0.08 0.02 82 1017.5
20260506061503 58 319 0.0 0.0 0.00 0.08 0.02 83 1017.0
20260506044546 60 288 0.0 0.0 0.00 0.20 0.02 80 1016.2
20260506043033 61 305 0.0 1.0 0.00 0.20 0.02 80 1016.0
20260506041537 61 278 0.0 0.0 0.00 0.20 0.02 82 1015.6
20260506040036 62 294 0.0 0.0 0.00 0.28 0.02 81 1015.6
20260506034548 62 319 0.0 0.0 0.00 0.28 0.02 81 1015.6
20260506033048 62 273 0.0 0.0 0.00 0.28 0.02 80 1015.4
20260506031557 62 273 0.0 0.0 0.00 0.28 0.02 79 1015.1
20260506030105 63 264 0.0 0.0 0.00 0.30 0.02 78 1015.0
20260506024547 63 231 0.0 0.0 0.00 0.30 0.02 78 1014.8
20260506023048 63 239 0.0 0.0 0.00 0.30 0.02 77 1014.5
20260506021547 63 217 0.0 1.0 0.00 0.30 0.02 76 1014.4
20260506020047 63 179 0.0 1.0 0.00 0.32 0.02 75 1014.6
20260506014550 63 181 0.0 2.0 0.00 0.32 0.02 74 1014.6
20260506013022 63 191 0.0 2.0 0.00 0.32 0.02 74 1014.4
20260506011520 64 221 0.0 4.0 0.00 0.32 0.02 73 1014.4
20260506010002 64 198 0.0 3.0 0.00 0.37 0.02 71 1014.2
20260506004517 64 174 0.0 4.0 0.00 0.37 0.02 70 1014.2
20260506003017 65 174 0.0 2.0 0.00 0.37 0.02 69 1014.2
20260506001517 65 210 0.0 2.0 0.00 0.37 0.02 68 1014.1
20260506000016 66 221 0.0 0.0 0.00 0.41 0.02 66 1014.0
20260505234533 67 201 0.0 2.0 0.00 0.41 0.02 62 1014.0
20260505233018 69 198 0.0 0.0 0.00 0.41 0.02 56 1013.8
20260505231517 69 202 0.0 0.0 0.00 0.41 0.02 56 1013.9
20260505230016 70 174 0.0 0.0 0.00 0.43 0.02 57 1014.0
20260505224525 69 295 0.0 1.0 0.00 0.43 0.02 59 1014.1
20260505223057 69 328 0.0 1.0 0.00 0.43 0.02 62 1014.2
20260505221557 67 316 0.0 0.0 0.00 0.43 0.02 63 1014.4
20260505220043 67 309 0.0 3.0 0.00 0.43 0.02 66 1014.5
20260505214547 67 290 0.0 1.0 0.00 0.43 0.02 66 1014.6
20260505213043 67 304 0.0 4.0 0.00 0.43 0.02 69 1014.6
20260505211540 65 336 0.0 0.0 0.00 0.43 0.02 67 1014.7
20260505210043 65 194 0.0 0.0 0.00 0.43 0.02 70 1014.7
20260505204540 65 215 0.0 1.0 0.00 0.43 0.02 69 1014.8
20260505203040 65 323 0.0 0.0 0.00 0.43 0.02 71 1014.8
20260505201541 63 191 0.0 0.0 0.00 0.43 0.02 72 1014.8
20260505200046 63 276 0.0 0.0 0.00 0.43 0.02 72 1015.0
20260505194541 63 202 0.0 0.0 0.00 0.43 0.02 74 1015.1
20260505193040 63 310 0.0 0.0 0.00 0.43 0.02 74 1015.0
20260505191540 61 188 0.0 0.0 0.00 0.43 0.02 75 1015.1
20260505190047 61 238 0.0 1.0 0.00 0.43 0.02 77 1015.1
20260505184540 61 261 0.0 0.0 0.00 0.43 0.02 75 1015.0
20260505183047 61 197 0.0 0.0 0.00 0.43 0.02 76 1014.8
20260505181540 60 278 0.0 1.0 0.00 0.43 0.02 79 1014.9
20260505180041 60 165 0.0 0.0 0.00 0.43 0.02 78 1014.8
20260505174545 60 323 0.0 0.0 0.00 0.43 0.02 80 1014.7
20260505173046 59 252 0.0 0.0 0.00 0.43 0.02 83 1014.6
20260505171555 58 288 0.0 0.0 0.00 0.43 0.02 85 1014.7
20260505170054 57 278 0.0 1.0 0.00 0.43 0.02 86 1014.7
20260505164616 57 244 0.0 1.0 0.00 0.43 0.02 88 1014.6
20260505163055 56 321 0.0 0.0 0.00 0.43 0.02 90 1014.6
20260505161558 55 290 0.0 0.0 0.00 0.43 0.02 91 1014.6
20260505160107 55 213 0.0 1.0 0.00 0.43 0.02 91 1014.5
20260505153109 54 236 0.0 1.0 0.00 0.43 0.02 93 1014.5
20260505151511 54 207 0.0 2.0 0.00 0.43 0.02 93 1014.3